{"data":{"norad_id":81946,"intl_designator":"","name":"UNKNOWN","alt_names":[],"object_type":"UNKNOWN","status":"UNKNOWN","operator":null,"country":null,"launch_date":null,"launch_site_code":null,"launch_vehicle":null,"mission":null,"orbit_class":"UNKNOWN","rcs_meters":null,"size_class":null,"mass_kg":null,"dimensions":null,"purposes":[],"wikipedia_slug":null,"has_3d_model":false,"image_url":null,"decayed_at":null,"tle_current":{"epoch":"2026-05-08T12:59:51.357696Z","epoch_age_seconds":1497078,"freshness":"OLD","line1":"1 81946U          26128.54156664  .00000573  00000+0  20133-2 0  9999","line2":"2 81946  66.4141 230.1972 0679141 280.7336  90.6126 12.42680336566122","mean_motion":12.42680336,"eccentricity":0.0679141,"inclination_deg":66.4141,"raan_deg":230.1972,"arg_perigee_deg":280.7336,"mean_anomaly_deg":90.6126,"bstar":0.0020133,"rev_number":56612,"period_min":115.87855366209,"perigee_km":960.54657019796,"apogee_km":2029.9760934957,"semimajor_km":7873.3983318468,"source":"CELESTRAK","updated_at":"2026-05-25T13:38:11.088554Z"}}}